Flag for New Zealand Weather past 2 weeks in Christchurch, New Zealand

Now
55 °F

Light rain. Passing clouds.


Feels Like: 52 °F
Forecast: 40 / 52 °F
Wind: 12 mph from West

Location: Christchurch Airport

Current Time: Aug 2, 2014 at 8:40:39 PM

Latest Report: Aug 2, 2014 at 8:00 PM


Visibility: N/A

Pressure: 29.62 "Hg

Humidity: 67%

Dew point: 45 °F

Location of ChristchurchLocation

Historic Weather in Christchurch — Graph

°F

Christchurch temperature yesterday

Maximum temperature yesterday: 66 °F (at 2:30 PM)
Minimum temperature yesterday: 43 °F (at 1:30 AM)
Average temperature yesterday: 58 °F

Past Weeks' High & Low Weather Summary

 TemperatureHumidityPressure
High72 °F (Aug 2, 12:30 PM)100% (Jul 19, 12:00 AM)30.24 "Hg (Jul 19, 12:00 AM)
Low25 °F (Jul 25, 5:30 AM)27% (Jul 31, 3:30 AM)29.50 "Hg (Jul 30, 7:00 PM)
Average46 °F75%29.84 "Hg
* Reported Jul 18 7:00 PM — Aug 2 7:30 PM, Christchurch, Weather by CustomWeather, © 2014

Note: Actual official high and low records may vary slightly from our data, if they occured in-between our weather recording intervals... More about our weather records

Advertising

Christchurch weather history for previous 24 hours

 ConditionsComfort  
Time TempWeatherWind HumidityBarometerVisibility
7:30 PM
Aug 2
57 °FCool.7 mph67%29.62 "HgN/A
7:00 PM54 °FPassing clouds.9 mph82%29.62 "HgN/A
6:30 PM55 °FPartly cloudy.16 mph72%29.59 "HgN/A
6:00 PM57 °FPassing clouds.18 mph67%29.59 "HgN/A
5:30 PM61 °FPassing clouds.13 mph55%29.56 "HgN/A
5:00 PM61 °FRefreshingly cool.15 mph59%29.56 "HgN/A
4:30 PM68 °FMild.10 mph40%29.53 "HgN/A
4:00 PM68 °FMild.13 mph40%29.53 "HgN/A
3:30 PM70 °FMild.14 mph40%29.53 "HgN/A
3:00 PM70 °FMild.16 mph40%29.53 "HgN/A
2:30 PM70 °FMild.18 mph38%29.53 "HgN/A
2:00 PM70 °FMild.17 mph40%29.53 "HgN/A
1:30 PM70 °FMild.18 mph38%29.53 "HgN/A
1:00 PM70 °FMild.21 mph38%29.56 "HgN/A
12:30 PM72 °FMild.12 mph36%29.56 "HgN/A
12:00 PM70 °FMild.10 mph35%29.56 "HgN/A
11:30 AM70 °FMild.20 mph33%29.59 "HgN/A
11:00 AM68 °FPassing clouds.21 mph38%29.59 "HgN/A
10:30 AM68 °FPassing clouds.10 mph43%29.62 "HgN/A
10:00 AM66 °FPartly sunny.14 mph49%29.62 "HgN/A
9:30 AM64 °FPassing clouds.17 mph49%29.62 "HgN/A
9:00 AM63 °FMild.12 mph52%29.65 "HgN/A
8:30 AM57 °FPassing clouds.7 mph59%29.65 "HgN/A
8:00 AM59 °FPassing clouds.9 mph51%29.65 "HgN/A
7:30 AM55 °FRefreshingly cool.9 mph59%29.65 "HgN/A
7:00 AM57 °FRefreshingly cool.9 mph51%29.65 "HgN/A
6:30 AM63 °FMild.12 mph42%29.68 "HgN/A
6:00 AM57 °FRefreshingly cool.7 mph48%29.68 "HgN/A
5:30 AM55 °FRefreshingly cool.6 mph51%29.68 "HgN/A
5:00 AM57 °FRefreshingly cool.9 mph48%29.71 "HgN/A
4:30 AM57 °FRefreshingly cool.6 mph48%29.71 "HgN/A
4:00 AM61 °FRefreshingly cool.13 mph45%29.71 "HgN/A
3:30 AM61 °FRefreshingly cool.15 mph48%29.68 "HgN/A
3:00 AM61 °FRefreshingly cool.10 mph48%29.71 "HgN/A
2:30 AM59 °FRefreshingly cool.3 mph55%29.71 "HgN/A
2:00 AM55 °FPassing clouds.2 mph63%29.71 "HgN/A
1:30 AM54 °FCool.7 mph72%29.71 "HgN/A
1:00 AM54 °FCool.7 mph67%29.74 "HgN/A
12:30 AM54 °FCool.9 mph67%29.74 "HgN/A
12:00 AM55 °FCool.14 mph63%29.74 "HgN/A
11:30 PM
Aug 1
57 °FRefreshingly cool.8 mph59%29.74 "HgN/A
11:00 PM59 °FRefreshingly cool.12 mph55%29.77 "HgN/A
10:30 PM59 °FRefreshingly cool.14 mph51%29.77 "HgN/A
10:00 PM57 °FRefreshingly cool.8 mph55%29.77 "HgN/A
9:30 PM61 °FRefreshingly cool.12 mph45%29.77 "HgN/A
9:00 PM61 °FPassing clouds.8 mph45%29.80 "HgN/A
8:30 PM61 °FPassing clouds.6 mph48%29.83 "HgN/A
8:00 PM61 °FPassing clouds.8 mph48%29.80 "HgN/A
Weather by CustomWeather, © 2014

See weather overviewHow to use our weather pages